Regional Weather Roundup
Issued by NWS

Home | Current Version | Previous Version | Graphics & Text | Print | Product List | Glossary On
Versions: 1 2 3 4 5 6 7 8 9 10 11 12 13 14 15 16 17 18 19 20 21 22 23 24 25 26 27 28 29 30 31 32 33 34 35 36 37 38 39 40 41 42 43 44 45 46 47 48 49
000
ASUS45 KPSR 232210
RWRAZ

ARIZONA HOURLY REGIONAL WEATHER ROUNDUP
NATIONAL WEATHER SERVICE PHOENIX AZ
300 PM MST TUE MAY 23 2017

NOTE: FAIR INDICATES FEW OR NO CLOUDS BELOW 12,000 FEET WITH NO
SIGNIFICANT WEATHER AND/OR OBSTRUCTIONS TO VISIBILITY.

AZZ001>003-036-232300-
NORTHWEST ARIZONA

CITY           SKY/WX    TMP DP  RH WIND       PRES   REMARKS
BULLHEAD CITY  SUNNY    106  23   5 NW8G15    29.79F
KINGMAN        SUNNY     93  26   9 CALM      30.00F
$$

AZZ004>008-015-016-018-232300-
NORTH CENTRAL ARIZONA

CITY           SKY/WX    TMP DP  RH WIND       PRES   REMARKS
GRAND CANYON   SUNNY     78  24  13 W10G16    30.23F
WILLIAMS       SUNNY     75  23  14 N8        30.24F
PRESCOTT       SUNNY     86  18   8 N12G17    30.11F
FLAGSTAFF      SUNNY     75  16  10 N13       30.23F
PAYSON         SUNNY     88  21   8 W8G16     30.11F
PAGE           SUNNY     82  32  16 N7        30.09F
$$

AZZ009>014-017-232300-
NORTHEAST ARIZONA

CITY           SKY/WX    TMP DP  RH WIND       PRES   REMARKS
WINSLOW        SUNNY     84  29  13 NW13G21   30.12F
SAINT JOHNS    SUNNY     81  25  12 NW15G24   30.12F
WINDOW ROCK    SUNNY     73  26  17 NW15G22   30.19F
SHOW LOW       SUNNY     73  23  15 NW14G21   30.21F
$$

AZZ540-542>544-546-548-232300-
GREATER PHOENIX AREA

CITY           SKY/WX    TMP DP  RH WIND       PRES   REMARKS
PHOENIX        SUNNY    103  23   6 NW9       29.79F
BUCKEYE        SUNNY    102  25   6 S9        29.80F
GLENDALE       SUNNY    106  21   5 CALM      29.81F
LUKE AFB       SUNNY    102  24   6 S7        29.78F
DEER VALLEY    SUNNY    102  18   5 W8G18     29.81F
SCOTTSDALE     SUNNY    101  20   5 W9        29.83F
MESA-FALCON    SUNNY    N/A N/A N/A W6        29.82F
MESA-GATEWAY   SUNNY    100  25   7 NW8G18    29.83F
CHANDLER       SUNNY    100  19   5 W6        29.81F
$$

AZZ539-553-232300-
SOUTHWEST MARICOPA COUNTY AND PINAL COUNTY

CITY           SKY/WX    TMP DP  RH WIND       PRES   REMARKS
CASA GRANDE    SUNNY    100  27   7 CALM      29.83F
GILA BEND      SUNNY    104  15   4 SW9       29.78F
$$

AZZ503-504-507>509-232300-
SOUTHEAST ARIZONA

CITY           SKY/WX    TMP DP  RH WIND       PRES   REMARKS
TUCSON         SUNNY    100  21   6 NW9G23    29.91F
DAVIS-MONTHAN  SUNNY     98  21   6 N10G17    29.90F
RYAN FIELD     SUNNY     99  21   6 W10G17    29.90F
NOGALES        SUNNY     95  17   6 NW14G20   29.98F
SIERRA VISTA   SUNNY     91  19   7 W17G24    30.05F
DOUGLAS        SUNNY     93  18   6 VRB6      29.98F
SAFFORD        SUNNY     98  19   6 W21G29    29.89F
$$

AZZ532-232300-
SOUTHWEST ARIZONA

CITY           SKY/WX    TMP DP  RH WIND       PRES   REMARKS
YUMA           SUNNY    108  27   6 W9        29.75F HX 100
$$

CAZ041-043-047-048-061-525>527-560>570-232300-
SOUTHERN CALIFORNIA

CITY           SKY/WX    TMP DP  RH WIND       PRES   REMARKS
DOWNTOWN L.A.  SUNNY     74  58  57 CALM      29.92F
L.A. AIRPORT   MOSUNNY   66  57  72 W12       29.94F
SAN DIEGO      MOSUNNY   72  58  61 NW10      29.96F
BURBANK        SUNNY     84  54  35 SE9       29.92F
ONTARIO        MOSUNNY   88  56  33 W15G24    29.90F
RIVERSIDE      SUNNY     88  57  34 W13G24    29.90S
PALM SPRINGS   SUNNY    110  27   5 S6        29.78F HX 102
EL CENTRO NAS  MOSUNNY  107  23   5 SE5       29.76F
IMPERIAL       SUNNY    109  32   7 E6        29.74F HX 101
BLYTHE         SUNNY    107  21   5 CALM      29.77F
NEEDLES        SUNNY    109  19   4 NE13      29.81F HX 100
$$

NVZ020-UTZ003-232300-
SOUTHERN NEVADA-UTAH

CITY           SKY/WX    TMP DP  RH WIND       PRES   REMARKS
LAS VEGAS      MOSUNNY  100  19   5 VRB5      29.90F
SALT LAKE CITY PTSUNNY   80  40  23 N14       30.10F
$$

NMZ009-TXZ055-232300-
NEW MEXICO-WEST TEXAS

CITY           SKY/WX    TMP DP  RH WIND       PRES   REMARKS
ALBUQUERQUE    PTSUNNY   77  31  18 W7        30.03F
EL PASO        MOSUNNY   85  33  15 SE7       29.95F
$$


........................KEY........................
SKY/WX - SKY CONDITION/WEATHER
TMP    - TEMPERATURE IN FAHRENHEIT
DP     - DEW POINT IN FAHRENHEIT
RH     - RELATIVE HUMIDITY IN PERCENT
WIND   - DIRECTION AND SPEED IN MILES PER HOUR (MPH)
VRB    - VARIABLE WIND DIRECTION
PRES   - MEAN SEA LEVEL PRESSURE IN INCHES OF MERCURY
         F - FALLING PRESSURE   R - RISING PRESSURE
         S - STEADY PRESSURE
VSB    - VISIBILITY IN MILES
HX     - HEAT INDEX IN FAHRENHEIT
WCI    - WIND CHILL INDEX IN FAHRENHEIT
TC     - TEMPERATURE IN CELSIUS WHICH IS ALSO KNOWN AS
         TEMPERATURE IN CENTIGRADE
AFB    - AIR FORCE BASE
         LUKE AFB IS LUKE AIR FORCE BASE
         DAVIS-MONTHAN IS DAVIS-MONTHAN AIR FORCE BASE
NAS    - NAVAL AIR STATION
         EL CENTRO NAS IS EL CENTRO NAVAL AIR STATION
N/A    - NOT AVAILABLE





USA.gov is the U.S. government's official web portal to all federal, state and local government web resources and services.